2025-226A

Last updated on Mon Oct 20 2025 00:02:08 GMT+0000 (Coordinated Universal Time)

1 65938U 25226A 25292.28459588 .00019451 00000+0 11464-2 0 9994 2 65938 97.6688 6.4372 0014104 254.5831 105.3841 15.11541170 1242
UTC large
Height (km)
Speed (km/s)
/
Latitude / Longitude
Inclination (degrees)
Orbital Period (minutes)
Azimuth
Elevation
Range (km)
Doppler Factor

Next 0 passes for location: London (51.5072 / 0.1276)

Sorry there are no passes over London.